Location: Degersen
(52.2871°N, 9.5716°E)
Time: 19:53:32
(UTC+00:00)

Cosmos 1140 Rocket - Pass Details

Date: 20 January 2026
Orbit: 739 x 763 km, 74.1° (Epoch: 16 February)

Event Time Altitude Azimuth Distance (km) Brightness Sun altitude
Exits shadow 04:49:55 17° 205° (SSW) 1,797 5.2 -22.2°
Maximum altitude 04:53:50 88° 291° (WNW) 752 3.3 -21.7°
Drops below altitude 10° 04:59:01 10° 25° (NNE) 2,277 6.2 -20.9°
Sets 05:01:24 0° 26° (NNE) 3,209 7.0 -20.5°
